Location: Marlborough
(51.4223°N, 1.7415°W)
Time: 08:04:07
(UTC+01:00)

Envisat - Pass Details

Date: 27 May 2024
Orbit: 762 x 764 km, 98.3° (Epoch: 13 June)

Event Time Altitude Azimuth Distance (km) Brightness Sun altitude
Rises 03:20:05 0° 25° (NNE) 3,240 8.3 -11.4°
Reaches altitude 10° 03:22:58 10° 41° (NE) 2,308 7.0 -11.1°
Maximum altitude 03:26:47 21° 90° (E) 1,669 5.2 -10.8°
Drops below altitude 10° 03:30:34 10° 139° (SE) 2,294 5.3 -10.5°
Sets 03:33:24 0° 155° (SSE) 3,215 5.9 -10.2°
